📊 Raw Sensor Data

Showing records 44551 to 44575 of 85,038 total

ID Distance (ft) Battery V Battery A Int Temp (°F) Int Humid (%) Ext Temp (°F) Solar V RSSI SNR Time Stamp
40500 15.8 3.95 0 83 43 73 5.10 -71 7 05/13/2025 05:00 PM
40499 15.8 3.95 0 83 42 73 5.10 -70 8 05/13/2025 04:45 PM
40498 15.9 4.08 0 83 42 74 5.10 -70 8 05/13/2025 04:30 PM
40497 15.9 4.11 0 82 42 73 5.10 -70 8 05/13/2025 04:15 PM
40496 15.8 3.95 0 81 43 72 5.10 -71 8 05/13/2025 04:00 PM
40495 15.9 3.95 0 83 41 72 5.10 -71 8 05/13/2025 03:45 PM
40494 15.9 3.95 0 82 41 72 5.10 -70 8 05/13/2025 03:30 PM
40493 15.9 3.95 0 82 41 74 5.10 -71 7 05/13/2025 03:15 PM
40492 15.9 4.07 0 82 40 71 5.10 -70 7 05/13/2025 03:00 PM
40491 15.9 3.95 0 82 39 71 5.10 -71 7 05/13/2025 02:45 PM
40490 15.9 3.95 0 80 40 69 5.10 -70 7 05/13/2025 02:30 PM
40489 15.9 3.95 0 79 40 69 5.10 -69 8 05/13/2025 02:15 PM
40488 15.8 3.95 0 77 40 69 5.10 -69 8 05/13/2025 02:00 PM
40487 15.9 3.95 0 77 41 67 5.10 -69 8 05/13/2025 01:45 PM
40486 15.9 3.95 0 75 41 68 5.10 -71 8 05/13/2025 01:30 PM
40485 15.9 4.06 0 76 41 68 5.10 -69 8 05/13/2025 01:15 PM
40484 15.9 3.95 0 75 41 67 5.10 -71 7 05/13/2025 01:00 PM
40483 16.0 3.95 0 75 41 68 5.10 -70 8 05/13/2025 12:45 PM
40482 16.0 4.12 0 74 41 69 5.10 -71 8 05/13/2025 12:30 PM
40481 16.0 3.95 0 74 40 67 5.10 -71 8 05/13/2025 12:15 PM
40480 16.0 4.12 0 71 41 66 5.10 -70 8 05/13/2025 12:00 PM
40479 15.9 3.95 0 70 42 69 5.10 -71 7 05/13/2025 11:45 AM
40478 15.9 3.95 0 69 42 64 5.10 -71 8 05/13/2025 11:30 AM
40477 16.0 3.95 0 71 40 65 5.10 -70 8 05/13/2025 11:15 AM
40476 15.9 4.00 0 69 40 66 5.10 -71 8 05/13/2025 11:00 AM